Hermosillo, Mexico

2:23 AM MST on February 11, 2016 (GMT -0700)
Gen Ignacio Pesqueira Garcia

Weather History for MMHO - September, 2014

Change the Weather History Date:

Thursday, September 4, 2014

  Actual Average Record
Temperature  
Mean Temperature 94 °F -  
Max Temperature 104 °F 96 °F 109 °F (2000)
Min Temperature 83 °F 74 °F 73 °F (2000)
Cooling Degree Days 28    
Growing Degree Days 44 (Base 50)    
Moisture  
Dew Point 70 °F    
Average Humidity 44    
Maximum Humidity 70    
Minimum Humidity 25    
Precipitation  
Precipitation 0.00 in - - ()
Sea Level Pressure  
Sea Level Pressure 29.74 in    
Wind  
Wind Speed 6 mph ()    
Max Wind Speed 16 mph    
Max Gust Speed -    
Visibility 9.1 miles    
Events      
Averages and records for this station are not official NWS values.
T = Trace of Precipitation, MM = Missing Value Source: Averaged Metar Reports

Daily Weather History Graph

Daily Weather History Graph

Search for Another Location

Airport or City:

Trip Planner

Search our weather history database for the weather conditions in past years. The results will help you decide how hot, cold, wet, or windy it might be!

Date:

Astronomy

Sep. 04, 2014 Rise Set
Actual Time 7:03 AM MDT 7:42 PM MDT
Civil Twilight 6:39 AM MDT 8:06 PM MDT
Nautical Twilight 6:11 AM MDT 8:34 PM MDT
Astronomical Twilight 5:42 AM MDT 9:03 PM MDT
Moon 4:09 PM MDT (9/4) 2:12 AM MDT (9/4)
Length of Visible Light 13h 26m
Length of Day
12h 38m
Waxing Gibbous, 75% of the Moon is Illuminated
Sep 4
Waxing Gibbous
Sep 8
Full
Sep 15
Last Quarter
Sep 24
New
Oct 1
First Quarter

Hourly Weather History & Observations

Time (MDT) Temp. Heat Index Dew Point Humidity Pressure Visibility Wind Dir Wind Speed Gust Speed Precip Events Conditions
7:41 AM 86.0 °F 95.1 °F 75.2 °F 70% 29.75 in 10.0 mi SE 6.9 mph - N/A   Overcast
8:40 AM 85 °F - 74 °F 62% 29.73 in 7 mi NNE 2.2 mph - -   Partly Cloudy
8:44 AM 87.8 °F 97.6 °F 75.2 °F 66% 29.73 in 10.0 mi SSE 8.1 mph - N/A   Scattered Clouds
9:49 AM 89.6 °F 99.8 °F 75.2 °F 62% 29.79 in 10.0 mi Calm Calm - N/A   Scattered Clouds
10:49 AM 91.4 °F 100.1 °F 73.4 °F 55% 29.80 in 10.0 mi Calm Calm - N/A   Scattered Clouds
11:40 AM 95 °F - 73 °F 40% 29.76 in 7 mi NNE 2.2 mph - -   Scattered Clouds
11:48 AM 95.0 °F 103.2 °F 71.6 °F 47% 29.74 in 10.0 mi SSE 6.9 mph - N/A   Scattered Clouds
12:45 PM 96.8 °F 103.1 °F 69.8 °F 41% 29.79 in 10.0 mi SSE 5.8 mph - N/A   Scattered Clouds
1:46 PM 98.6 °F 102.8 °F 66.2 °F 35% 29.77 in 10.0 mi SE 5.8 mph - N/A   Scattered Clouds
2:35 PM 103 °F - 70 °F 25% 29.69 in 7 mi SE 2.2 mph - -   Partly Cloudy
2:50 PM 102.2 °F 106.9 °F 66.2 °F 31% 29.69 in 10.0 mi SSE 11.5 mph - N/A   Mostly Cloudy
3:47 PM 100.4 °F 104.9 °F 66.2 °F 33% 29.72 in 10.0 mi North 4.6 mph - N/A   Mostly Cloudy
4:46 PM 100.4 °F 103.6 °F 64.4 °F 31% 29.70 in 12.0 mi SSE 13.8 mph - N/A   Mostly Cloudy
5:30 PM 101 °F - 70 °F 27% 29.65 in 7 mi SE 2.2 mph - -   Scattered Clouds
5:45 PM 100.4 °F 103.6 °F 64.4 °F 31% 29.67 in 12.0 mi SSE 13.8 mph - N/A   Scattered Clouds
6:00 PM 101 °F - 70 °F 27%  in 7 mi SE 2.2 mph - -  
6:42 PM 98.6 °F 104.1 °F 68.0 °F 37% 29.73 in 12.0 mi South 16.1 mph - N/A   Mostly Cloudy
7:43 PM 95.0 °F 101.3 °F 69.8 °F 44% 29.75 in 10.0 mi South 16.1 mph - N/A   Mostly Cloudy
8:40 PM 90 °F - 72 °F 47% 29.74 in 5 mi East 6.7 mph - -   Mostly Cloudy
8:42 PM 91.4 °F 98.4 °F 71.6 °F 52% 29.75 in 10.0 mi SSE 15.0 mph - N/A   Mostly Cloudy
9:42 PM 91.4 °F 98.4 °F 71.6 °F 52% 29.83 in 10.0 mi South 10.4 mph - N/A   Mostly Cloudy
11:40 PM 86 °F - 70 °F 50% 29.82 in 5 mi NE 6.7 mph - -   Mostly Cloudy